Time,TemperatureF,DewpointF,PressureIn,WindDirection,WindDirectionDegrees,WindSpeedMPH,WindSpeedGustMPH,Humidity,HourlyPrecipIn,Conditions,Clouds,dailyrainin,SoftwareType,DateUTC
2013-09-16 00:02:00,74.5,67.1,29.95,ESE,108,3.0,4.0,78,0.00,,,0.00,meteohub,2013-09-16 10:02:00,
2013-09-16 00:07:00,74.5,67.1,29.96,East,83,5.0,5.0,78,0.00,,,0.00,meteohub,2013-09-16 10:07:00,
2013-09-16 00:12:00,74.7,66.9,29.95,ESE,113,3.0,5.0,77,0.00,,,0.00,meteohub,2013-09-16 10:12:00,
2013-09-16 00:17:00,74.7,66.9,29.96,SE,146,2.0,7.0,77,0.00,,,0.00,meteohub,2013-09-16 10:17:00,
2013-09-16 00:22:00,74.5,66.7,29.95,East,98,2.0,7.0,77,0.00,,,0.00,meteohub,2013-09-16 10:22:00,
2013-09-16 00:27:00,74.5,66.7,29.95,East,91,3.0,7.0,77,0.00,,,0.00,meteohub,2013-09-16 10:27:00,
2013-09-16 00:32:00,74.5,66.7,29.95,ESE,122,2.0,6.0,77,0.00,,,0.00,meteohub,2013-09-16 10:32:00,
2013-09-16 00:37:00,74.7,66.9,29.95,East,96,1.0,5.0,77,0.00,,,0.00,meteohub,2013-09-16 10:37:00,
2013-09-16 00:42:00,74.5,66.7,29.95,East,93,2.0,4.0,77,0.00,,,0.00,meteohub,2013-09-16 10:42:00,
2013-09-16 00:47:00,74.1,66.4,29.95,East,89,2.0,4.0,77,0.00,,,0.00,meteohub,2013-09-16 10:47:00,
2013-09-16 00:52:00,73.9,66.6,29.95,East,96,3.0,4.0,78,0.00,,,0.00,meteohub,2013-09-16 10:52:00,
2013-09-16 00:57:00,73.8,66.4,29.95,East,98,2.0,4.0,78,0.00,,,0.00,meteohub,2013-09-16 10:57:00,
2013-09-16 01:02:00,73.6,66.7,29.95,ENE,73,2.0,5.0,79,0.00,,,0.00,meteohub,2013-09-16 11:02:00,
2013-09-16 01:07:00,73.8,66.9,29.95,East,88,3.0,6.0,79,0.00,,,0.00,meteohub,2013-09-16 11:07:00,
2013-09-16 01:12:00,73.9,66.6,29.95,ENE,75,2.0,6.0,78,0.00,,,0.00,meteohub,2013-09-16 11:12:00,
2013-09-16 01:17:00,73.9,66.6,29.95,ESE,116,1.0,6.0,78,0.00,,,0.00,meteohub,2013-09-16 11:17:00,
2013-09-16 01:22:00,73.8,66.9,29.94,East,92,3.0,5.0,79,0.00,,,0.00,meteohub,2013-09-16 11:22:00,
2013-09-16 01:27:00,73.8,66.9,29.94,ESE,108,3.0,5.0,79,0.00,,,0.00,meteohub,2013-09-16 11:27:00,
2013-09-16 01:32:00,73.8,66.4,29.94,ESE,109,2.0,5.0,78,0.00,,,0.00,meteohub,2013-09-16 11:32:00,
2013-09-16 01:37:00,73.6,66.7,29.95,East,93,4.0,4.0,79,0.00,,,0.00,meteohub,2013-09-16 11:37:00,
2013-09-16 01:42:00,73.6,66.4,29.95,East,96,2.0,5.0,78,0.00,,,0.00,meteohub,2013-09-16 11:42:00,
2013-09-16 01:47:00,73.8,66.4,29.94,East,98,2.0,5.0,78,0.00,,,0.00,meteohub,2013-09-16 11:47:00,
2013-09-16 01:52:00,73.8,66.0,29.94,ESE,104,2.0,5.0,77,0.00,,,0.00,meteohub,2013-09-16 11:52:00,
2013-09-16 01:57:00,73.8,66.0,29.94,ESE,122,3.0,5.0,77,0.00,,,0.00,meteohub,2013-09-16 11:57:00,
2013-09-16 02:02:00,73.8,66.0,29.94,East,79,2.0,5.0,77,0.00,,,0.00,meteohub,2013-09-16 12:02:00,
2013-09-16 02:07:00,73.8,66.0,29.94,ESE,114,2.0,5.0,77,0.00,,,0.00,meteohub,2013-09-16 12:07:00,
2013-09-16 02:12:00,73.8,66.0,29.94,East,79,3.0,7.0,77,0.00,,,0.00,meteohub,2013-09-16 12:12:00,
2013-09-16 02:17:00,73.9,65.8,29.94,East,82,2.0,7.0,76,0.00,,,0.00,meteohub,2013-09-16 12:17:00,
2013-09-16 02:22:00,74.1,66.0,29.94,East,96,2.0,7.0,76,0.00,,,0.00,meteohub,2013-09-16 12:22:00,
2013-09-16 02:27:00,73.9,65.8,29.94,East,98,0.0,4.0,76,0.00,,,0.00,meteohub,2013-09-16 12:27:00,
2013-09-16 02:32:00,73.6,65.8,29.95,NNE,18,1.0,3.0,77,0.00,,,0.00,meteohub,2013-09-16 12:32:00,
2013-09-16 02:37:00,73.4,66.2,29.94,East,87,3.0,3.0,78,0.00,,,0.00,meteohub,2013-09-16 12:37:00,
2013-09-16 02:42:00,73.2,66.0,29.94,East,86,2.0,5.0,78,0.00,,,0.00,meteohub,2013-09-16 12:42:00,
2013-09-16 02:47:00,73.0,65.8,29.94,East,84,2.0,5.0,78,0.00,,,0.00,meteohub,2013-09-16 12:47:00,
2013-09-16 02:52:00,73.0,66.2,29.94,ESE,105,3.0,5.0,79,0.00,,,0.00,meteohub,2013-09-16 12:52:00,
2013-09-16 02:57:00,73.2,66.4,29.94,ESE,113,5.0,5.0,79,0.00,,,0.00,meteohub,2013-09-16 12:57:00,
2013-09-16 03:02:00,73.6,66.4,29.94,ENE,73,2.0,5.0,78,0.00,,,0.00,meteohub,2013-09-16 13:02:00,
2013-09-16 03:07:00,73.8,66.4,29.94,ESE,120,3.0,6.0,78,0.00,,,0.00,meteohub,2013-09-16 13:07:00,
2013-09-16 03:12:00,73.6,66.4,29.94,ESE,108,3.0,6.0,78,0.00,,,0.00,meteohub,2013-09-16 13:12:00,
2013-09-16 03:17:00,73.8,66.4,29.94,East,97,3.0,5.0,78,0.00,,,0.00,meteohub,2013-09-16 13:17:00,
2013-09-16 03:22:00,73.8,66.0,29.94,ESE,111,4.0,5.0,77,0.00,,,0.00,meteohub,2013-09-16 13:22:00,
2013-09-16 03:27:00,73.8,66.0,29.94,ESE,106,2.0,5.0,77,0.00,,,0.00,meteohub,2013-09-16 13:27:00,
2013-09-16 03:32:00,73.8,66.0,29.94,East,98,2.0,5.0,77,0.00,,,0.00,meteohub,2013-09-16 13:32:00,
2013-09-16 03:37:00,74.1,66.4,29.94,East,81,2.0,5.0,77,0.00,,,0.00,meteohub,2013-09-16 13:37:00,
2013-09-16 03:42:00,74.5,66.7,29.94,ENE,78,0.0,4.0,77,0.00,,,0.00,meteohub,2013-09-16 13:42:00,
2013-09-16 03:47:00,74.3,66.6,29.95,ESE,107,1.0,3.0,77,0.00,,,0.00,meteohub,2013-09-16 13:47:00,
2013-09-16 03:52:00,73.9,66.6,29.95,NNW,347,0.0,2.0,78,0.00,,,0.00,meteohub,2013-09-16 13:52:00,
2013-09-16 03:57:00,73.6,66.4,29.95,NE,56,2.0,3.0,78,0.00,,,0.00,meteohub,2013-09-16 13:57:00,
2013-09-16 04:02:00,73.0,66.2,29.95,East,83,1.0,3.0,79,0.00,,,0.00,meteohub,2013-09-16 14:02:00,
2013-09-16 04:07:00,72.7,65.8,29.95,ENE,75,2.0,3.0,79,0.00,,,0.00,meteohub,2013-09-16 14:07:00,
2013-09-16 04:12:00,72.3,65.8,29.94,East,98,2.0,3.0,80,0.00,,,0.00,meteohub,2013-09-16 14:12:00,
2013-09-16 04:17:00,72.0,65.8,29.94,East,92,2.0,3.0,81,0.00,,,0.00,meteohub,2013-09-16 14:17:00,
2013-09-16 04:22:00,71.8,65.7,29.94,East,101,1.0,3.0,81,0.00,,,0.00,meteohub,2013-09-16 14:22:00,
2013-09-16 04:27:00,72.0,65.8,29.95,ESE,105,1.0,3.0,81,0.00,,,0.00,meteohub,2013-09-16 14:27:00,
2013-09-16 04:32:00,71.8,65.7,29.95,SSE,150,0.0,3.0,81,0.00,,,0.00,meteohub,2013-09-16 14:32:00,
2013-09-16 04:37:00,71.8,65.7,29.95,ESE,108,1.0,3.0,81,0.00,,,0.00,meteohub,2013-09-16 14:37:00,
2013-09-16 04:42:00,72.1,65.7,29.94,ENE,67,2.0,5.0,80,0.00,,,0.00,meteohub,2013-09-16 14:42:00,
2013-09-16 04:47:00,72.3,65.8,29.94,ENE,68,1.0,5.0,80,0.00,,,0.00,meteohub,2013-09-16 14:47:00,
2013-09-16 04:52:00,72.3,65.8,29.95,ESE,107,2.0,5.0,80,0.00,,,0.00,meteohub,2013-09-16 14:52:00,
2013-09-16 04:57:00,72.1,65.7,29.95,ESE,121,1.0,3.0,80,0.00,,,0.00,meteohub,2013-09-16 14:57:00,
2013-09-16 05:02:00,72.1,65.7,29.95,ESE,108,1.0,3.0,80,0.00,,,0.00,meteohub,2013-09-16 15:02:00,
2013-09-16 05:07:00,72.3,65.8,29.96,East,100,1.0,4.0,80,0.00,,,0.00,meteohub,2013-09-16 15:07:00,
2013-09-16 05:12:00,72.7,65.8,29.96,East,92,1.0,4.0,79,0.00,,,0.00,meteohub,2013-09-16 15:12:00,
2013-09-16 05:17:00,72.9,66.0,29.96,East,94,0.0,4.0,79,0.00,,,0.00,meteohub,2013-09-16 15:17:00,
2013-09-16 05:22:00,72.7,65.8,29.96,East,93,1.0,3.0,79,0.00,,,0.00,meteohub,2013-09-16 15:22:00,
2013-09-16 05:27:00,72.1,65.7,29.96,SE,135,1.0,3.0,80,0.00,,,0.00,meteohub,2013-09-16 15:27:00,
2013-09-16 05:32:00,72.0,65.5,29.96,SE,124,2.0,2.0,80,0.00,,,0.00,meteohub,2013-09-16 15:32:00,
2013-09-16 05:37:00,71.8,65.3,29.96,East,90,2.0,3.0,80,0.00,,,0.00,meteohub,2013-09-16 15:37:00,
2013-09-16 05:42:00,71.8,65.7,29.96,ENE,67,2.0,3.0,81,0.00,,,0.00,meteohub,2013-09-16 15:42:00,
2013-09-16 05:47:00,71.8,65.3,29.96,East,94,2.0,3.0,80,0.00,,,0.00,meteohub,2013-09-16 15:47:00,
2013-09-16 05:52:00,71.8,65.3,29.97,ESE,107,4.0,4.0,80,0.00,,,0.00,meteohub,2013-09-16 15:52:00,
2013-09-16 05:57:00,72.1,65.7,29.97,ESE,111,2.0,5.0,80,0.00,,,0.00,meteohub,2013-09-16 15:57:00,
2013-09-16 06:02:00,72.3,65.5,29.97,East,94,3.0,5.0,79,0.00,,,0.00,meteohub,2013-09-16 16:02:00,
2013-09-16 06:07:00,72.7,65.8,29.96,ENE,65,1.0,5.0,79,0.00,,,0.00,meteohub,2013-09-16 16:07:00,
2013-09-16 06:12:00,73.0,65.8,29.97,ENE,68,2.0,4.0,78,0.00,,,0.00,meteohub,2013-09-16 16:12:00,
2013-09-16 06:17:00,72.5,65.3,29.97,ENE,63,2.0,4.0,78,0.00,,,0.00,meteohub,2013-09-16 16:17:00,
2013-09-16 06:22:00,72.7,65.5,29.97,NE,56,1.0,4.0,78,0.00,,,0.00,meteohub,2013-09-16 16:22:00,
2013-09-16 06:27:00,72.3,65.1,29.98,ESE,115,3.0,4.0,78,0.00,,,0.00,meteohub,2013-09-16 16:27:00,
2013-09-16 06:32:00,72.7,65.1,29.98,ESE,113,2.0,7.0,77,0.00,,,0.00,meteohub,2013-09-16 16:32:00,
2013-09-16 06:37:00,73.0,64.6,29.98,ESE,108,2.0,7.0,75,0.00,,,0.00,meteohub,2013-09-16 16:37:00,
2013-09-16 06:43:00,73.4,64.6,29.98,East,94,2.0,7.0,74,0.00,,,0.00,meteohub,2013-09-16 16:43:00,
2013-09-16 06:48:00,73.6,64.8,29.98,ESE,103,2.0,5.0,74,0.00,,,0.00,meteohub,2013-09-16 16:48:00,
2013-09-16 06:53:00,73.6,65.1,29.98,SSE,150,1.0,4.0,75,0.00,,,0.00,meteohub,2013-09-16 16:53:00,
2013-09-16 06:58:00,73.2,65.1,29.98,WSW,240,0.0,4.0,76,0.00,,,0.00,meteohub,2013-09-16 16:58:00,
2013-09-16 07:03:00,73.2,65.1,29.98,SW,231,0.0,3.0,76,0.00,,,0.00,meteohub,2013-09-16 17:03:00,
2013-09-16 07:08:00,73.6,65.5,29.98,SW,232,0.0,3.0,76,0.00,,,0.00,meteohub,2013-09-16 17:08:00,
2013-09-16 07:13:00,74.1,65.7,29.99,SSE,167,0.0,3.0,75,0.00,,,0.00,meteohub,2013-09-16 17:13:00,
2013-09-16 07:18:00,74.8,66.0,29.98,SW,221,2.0,2.0,74,0.00,,,0.00,meteohub,2013-09-16 17:18:00,
2013-09-16 07:23:00,75.4,66.6,29.99,SW,224,0.0,3.0,74,0.00,,,0.00,meteohub,2013-09-16 17:23:00,
2013-09-16 07:28:00,76.5,67.6,29.99,NE,55,0.0,3.0,74,0.00,,,0.00,meteohub,2013-09-16 17:28:00,
2013-09-16 07:33:00,77.2,67.8,29.99,NE,55,0.0,3.0,73,0.00,,,0.00,meteohub,2013-09-16 17:33:00,
2013-09-16 07:38:00,77.9,67.8,29.99,ESE,102,0.0,2.0,71,0.00,,,0.00,meteohub,2013-09-16 17:38:00,
2013-09-16 07:43:00,78.3,68.0,29.99,SE,133,2.0,2.0,71,0.00,,,0.00,meteohub,2013-09-16 17:43:00,
2013-09-16 07:48:00,78.3,68.0,29.99,ESE,103,2.0,2.0,71,0.00,,,0.00,meteohub,2013-09-16 17:48:00,
2013-09-16 07:53:00,78.4,67.8,29.99,East,94,0.0,5.0,70,0.00,,,0.00,meteohub,2013-09-16 17:53:00,
2013-09-16 07:58:00,79.3,68.4,29.98,SW,235,0.0,5.0,69,0.00,,,0.00,meteohub,2013-09-16 17:58:00,
2013-09-16 08:03:00,80.1,68.9,29.99,SSE,153,0.0,5.0,69,0.00,,,0.00,meteohub,2013-09-16 18:03:00,
2013-09-16 08:09:00,80.4,68.0,29.99,SE,138,0.0,4.0,66,0.00,,,0.00,meteohub,2013-09-16 18:09:00,
2013-09-16 08:14:00,80.8,68.4,29.99,South,176,2.0,3.0,66,0.00,,,0.00,meteohub,2013-09-16 18:14:00,
2013-09-16 08:19:00,81.0,68.5,29.99,SSW,211,2.0,3.0,66,0.00,,,0.00,meteohub,2013-09-16 18:19:00,
2013-09-16 08:24:00,81.0,68.9,29.99,SSE,148,0.0,4.0,67,0.00,,,0.00,meteohub,2013-09-16 18:24:00,
2013-09-16 08:29:00,81.9,68.9,29.99,SE,136,0.0,4.0,65,0.00,,,0.00,meteohub,2013-09-16 18:29:00,
2013-09-16 08:34:00,82.6,69.1,29.98,ESE,118,0.0,3.0,64,0.00,,,0.00,meteohub,2013-09-16 18:34:00,
2013-09-16 08:39:00,81.9,68.0,29.99,SW,234,0.0,3.0,63,0.00,,,0.00,meteohub,2013-09-16 18:39:00,
2013-09-16 08:44:00,81.3,68.0,29.99,West,269,4.0,4.0,64,0.00,,,0.00,meteohub,2013-09-16 18:44:00,
2013-09-16 08:49:00,80.6,68.5,29.99,South,188,3.0,5.0,67,0.00,,,0.00,meteohub,2013-09-16 18:49:00,
2013-09-16 08:54:00,80.1,68.2,29.99,West,263,4.0,6.0,67,0.00,,,0.00,meteohub,2013-09-16 18:54:00,
2013-09-16 08:59:00,80.1,68.5,29.99,NW,314,3.0,7.0,68,0.00,,,0.00,meteohub,2013-09-16 18:59:00,
2013-09-16 09:04:00,80.1,68.5,29.99,West,273,1.0,7.0,68,0.00,,,0.00,meteohub,2013-09-16 19:04:00,
2013-09-16 09:09:00,80.1,68.2,29.99,NW,309,1.0,7.0,67,0.00,,,0.00,meteohub,2013-09-16 19:09:00,
2013-09-16 09:14:00,80.2,67.8,29.99,NW,316,5.0,6.0,66,0.00,,,0.00,meteohub,2013-09-16 19:14:00,
2013-09-16 09:19:00,80.6,68.2,30.00,West,259,3.0,6.0,66,0.00,,,0.00,meteohub,2013-09-16 19:19:00,
2013-09-16 09:24:00,81.0,67.6,30.00,WNW,284,0.0,6.0,64,0.00,,,0.00,meteohub,2013-09-16 19:24:00,
2013-09-16 09:30:00,81.3,67.1,30.00,NW,309,2.0,6.0,62,0.00,,,0.00,meteohub,2013-09-16 19:30:00,
2013-09-16 09:35:00,81.1,67.8,30.00,NW,306,4.0,7.0,64,0.00,,,0.00,meteohub,2013-09-16 19:35:00,
2013-09-16 09:40:00,81.3,67.5,30.00,SW,229,4.0,7.0,63,0.00,,,0.00,meteohub,2013-09-16 19:40:00,
2013-09-16 09:45:00,81.7,67.5,30.00,West,281,5.0,9.0,62,0.00,,,0.00,meteohub,2013-09-16 19:45:00,
2013-09-16 09:50:00,81.7,67.8,30.00,West,276,5.0,9.0,63,0.00,,,0.00,meteohub,2013-09-16 19:50:00,
2013-09-16 09:55:00,81.7,67.8,29.99,WSW,252,1.0,9.0,63,0.00,,,0.00,meteohub,2013-09-16 19:55:00,
2013-09-16 10:00:00,82.0,66.7,30.00,WSW,255,0.0,9.0,60,0.00,,,0.00,meteohub,2013-09-16 20:00:00,
2013-09-16 10:05:00,82.9,67.6,29.99,SSE,152,4.0,9.0,60,0.00,,,0.00,meteohub,2013-09-16 20:05:00,
2013-09-16 10:10:00,83.5,67.6,30.00,SW,231,3.0,9.0,59,0.00,,,0.00,meteohub,2013-09-16 20:10:00,
2013-09-16 10:15:00,83.7,68.4,29.99,SSW,201,3.0,9.0,60,0.00,,,0.00,meteohub,2013-09-16 20:15:00,
2013-09-16 10:20:00,84.2,67.8,29.99,ESE,122,0.0,9.0,58,0.00,,,0.00,meteohub,2013-09-16 20:20:00,
2013-09-16 10:25:00,84.6,68.2,29.99,SE,124,1.0,7.0,58,0.00,,,0.00,meteohub,2013-09-16 20:25:00,
2013-09-16 10:30:00,84.2,67.3,29.99,ESE,107,3.0,6.0,57,0.00,,,0.00,meteohub,2013-09-16 20:30:00,
2013-09-16 10:35:00,84.0,69.1,29.99,SW,214,5.0,7.0,61,0.00,,,0.00,meteohub,2013-09-16 20:35:00,
2013-09-16 10:40:00,84.4,70.3,29.99,NW,310,4.0,10.0,63,0.00,,,0.00,meteohub,2013-09-16 20:40:00,
2013-09-16 10:46:00,84.0,70.5,29.99,NW,304,7.0,11.0,64,0.00,,,0.00,meteohub,2013-09-16 20:46:00,
2013-09-16 10:51:00,83.3,70.3,29.99,WSW,248,8.0,14.0,65,0.00,,,0.00,meteohub,2013-09-16 20:51:00,
2013-09-16 10:56:00,83.1,71.1,29.99,West,280,7.0,14.0,67,0.00,,,0.00,meteohub,2013-09-16 20:56:00,
2013-09-16 11:01:00,82.9,70.9,29.99,West,280,9.0,14.0,67,0.00,,,0.00,meteohub,2013-09-16 21:01:00,
2013-09-16 11:06:00,82.9,70.9,29.99,WNW,284,11.0,14.0,67,0.00,,,0.00,meteohub,2013-09-16 21:06:00,
2013-09-16 11:11:00,83.1,69.6,29.99,West,266,11.0,16.0,64,0.00,,,0.00,meteohub,2013-09-16 21:11:00,
2013-09-16 11:16:00,83.1,69.6,29.98,West,281,8.0,16.0,64,0.00,,,0.00,meteohub,2013-09-16 21:16:00,
2013-09-16 11:21:00,83.8,70.9,29.98,NW,304,6.0,16.0,65,0.00,,,0.00,meteohub,2013-09-16 21:21:00,
2013-09-16 11:26:00,84.4,69.4,29.98,WSW,238,6.0,16.0,61,0.00,,,0.00,meteohub,2013-09-16 21:26:00,
2013-09-16 11:31:00,84.7,70.7,29.98,WSW,246,8.0,14.0,63,0.00,,,0.00,meteohub,2013-09-16 21:31:00,
2013-09-16 11:36:00,84.6,70.5,29.97,West,278,4.0,14.0,63,0.00,,,0.00,meteohub,2013-09-16 21:36:00,
2013-09-16 11:41:00,84.9,70.0,29.97,WSW,250,12.0,14.0,61,0.00,,,0.00,meteohub,2013-09-16 21:41:00,
2013-09-16 11:47:00,85.3,69.8,29.97,West,259,8.0,13.0,60,0.00,,,0.00,meteohub,2013-09-16 21:47:00,
2013-09-16 11:52:00,85.6,69.6,29.97,WSW,251,7.0,13.0,59,0.00,,,0.00,meteohub,2013-09-16 21:52:00,
2013-09-16 11:57:00,85.6,69.6,29.97,WSW,248,6.0,13.0,59,0.00,,,0.00,meteohub,2013-09-16 21:57:00,
2013-09-16 12:02:00,85.6,68.7,29.96,West,266,13.0,13.0,57,0.00,,,0.00,meteohub,2013-09-16 22:02:00,
2013-09-16 12:07:00,85.5,69.1,29.97,WSW,257,2.0,15.0,58,0.00,,,0.00,meteohub,2013-09-16 22:07:00,
2013-09-16 12:12:00,86.0,68.5,29.96,NW,309,6.0,15.0,56,0.00,,,0.00,meteohub,2013-09-16 22:12:00,
2013-09-16 12:17:00,85.6,68.7,29.97,West,276,16.0,16.0,57,0.00,,,0.00,meteohub,2013-09-16 22:17:00,
2013-09-16 12:22:00,85.1,69.1,29.97,WSW,253,8.0,19.0,59,0.00,,,0.00,meteohub,2013-09-16 22:22:00,
2013-09-16 12:27:00,85.3,69.3,29.96,WSW,255,11.0,19.0,59,0.00,,,0.00,meteohub,2013-09-16 22:27:00,
2013-09-16 12:32:00,85.5,68.5,29.96,West,270,10.0,19.0,57,0.00,,,0.00,meteohub,2013-09-16 22:32:00,
2013-09-16 12:37:00,85.5,69.1,29.96,West,276,7.0,17.0,58,0.00,,,0.00,meteohub,2013-09-16 22:37:00,
2013-09-16 12:42:00,85.6,68.7,29.96,WSW,248,4.0,17.0,57,0.00,,,0.00,meteohub,2013-09-16 22:42:00,
2013-09-16 12:47:00,85.8,68.9,29.96,West,272,8.0,16.0,57,0.00,,,0.00,meteohub,2013-09-16 22:47:00,
2013-09-16 12:52:00,86.2,70.2,29.95,West,269,7.0,16.0,59,0.00,,,0.00,meteohub,2013-09-16 22:52:00,
2013-09-16 12:57:00,86.5,68.4,29.95,WSW,257,4.0,13.0,55,0.00,,,0.00,meteohub,2013-09-16 22:57:00,
2013-09-16 13:02:00,86.2,69.1,29.95,West,278,8.0,9.0,57,0.00,,,0.00,meteohub,2013-09-16 23:02:00,
2013-09-16 13:07:00,86.4,67.3,29.95,WNW,284,6.0,9.0,53,0.00,,,0.00,meteohub,2013-09-16 23:07:00,
2013-09-16 13:12:00,86.5,68.9,29.95,West,266,7.0,12.0,56,0.00,,,0.00,meteohub,2013-09-16 23:12:00,
2013-09-16 13:17:00,86.4,68.7,29.94,WSW,253,6.0,13.0,56,0.00,,,0.00,meteohub,2013-09-16 23:17:00,
2013-09-16 13:22:00,86.5,70.0,29.94,NW,307,4.0,13.0,58,0.00,,,0.00,meteohub,2013-09-16 23:22:00,
2013-09-16 13:27:00,87.1,69.4,29.94,NW,306,13.0,18.0,56,0.00,,,0.00,meteohub,2013-09-16 23:27:00,
2013-09-16 13:32:00,86.5,66.7,29.94,WNW,291,9.0,18.0,52,0.00,,,0.00,meteohub,2013-09-16 23:32:00,
2013-09-16 13:37:00,86.5,68.0,29.93,WNW,285,9.0,16.0,54,0.00,,,0.00,meteohub,2013-09-16 23:37:00,
2013-09-16 13:42:00,85.8,70.3,29.94,WSW,240,14.0,28.0,60,0.00,,,0.00,meteohub,2013-09-16 23:42:00,
2013-09-16 13:47:00,86.2,69.1,29.93,WNW,300,16.0,28.0,57,0.00,,,0.00,meteohub,2013-09-16 23:47:00,
2013-09-16 13:52:00,85.3,69.8,29.93,WSW,249,7.0,28.0,60,0.00,,,0.00,meteohub,2013-09-16 23:52:00,
2013-09-16 13:57:00,85.8,67.8,29.93,WSW,252,10.0,26.0,55,0.00,,,0.00,meteohub,2013-09-16 23:57:00,
2013-09-16 14:02:00,86.2,67.6,29.93,West,274,9.0,23.0,54,0.00,,,0.00,meteohub,2013-09-17 00:02:00,
2013-09-16 14:07:00,85.6,69.1,29.93,West,266,16.0,23.0,58,0.00,,,0.00,meteohub,2013-09-17 00:07:00,
2013-09-16 14:12:00,85.3,67.3,29.93,West,280,13.0,25.0,55,0.00,,,0.00,meteohub,2013-09-17 00:12:00,
2013-09-16 14:17:00,85.3,68.9,29.93,West,274,14.0,25.0,58,0.00,,,0.00,meteohub,2013-09-17 00:17:00,
2013-09-16 14:22:00,85.3,68.4,29.92,NNE,18,5.0,25.0,57,0.00,,,0.00,meteohub,2013-09-17 00:22:00,
2013-09-16 14:27:00,85.3,69.8,29.92,WNW,290,12.0,23.0,60,0.00,,,0.00,meteohub,2013-09-17 00:27:00,
2013-09-16 14:32:00,85.5,68.0,29.92,NW,316,15.0,24.0,56,0.00,,,0.00,meteohub,2013-09-17 00:32:00,
2013-09-16 14:37:00,85.3,68.4,29.93,West,281,4.0,24.0,57,0.00,,,0.00,meteohub,2013-09-17 00:37:00,
2013-09-16 14:42:00,85.6,68.2,29.93,NW,319,13.0,24.0,56,0.00,,,0.00,meteohub,2013-09-17 00:42:00,
2013-09-16 14:47:00,85.3,69.3,29.92,WNW,300,7.0,24.0,59,0.00,,,0.00,meteohub,2013-09-17 00:47:00,
2013-09-16 14:52:00,85.6,68.7,29.93,WNW,301,7.0,24.0,57,0.00,,,0.00,meteohub,2013-09-17 00:52:00,
2013-09-16 14:57:00,85.3,69.3,29.93,WNW,288,9.0,24.0,59,0.00,,,0.00,meteohub,2013-09-17 00:57:00,
2013-09-16 15:02:00,84.7,68.9,29.93,NW,309,7.0,22.0,59,0.00,,,0.00,meteohub,2013-09-17 01:02:00,
2013-09-16 15:07:00,84.4,69.4,29.93,WNW,294,8.0,22.0,61,0.00,,,0.00,meteohub,2013-09-17 01:07:00,
2013-09-16 15:12:00,84.6,68.7,29.93,NW,311,11.0,17.0,59,0.00,,,0.00,meteohub,2013-09-17 01:12:00,
2013-09-16 15:17:00,84.6,69.1,29.93,West,273,7.0,18.0,60,0.00,,,0.00,meteohub,2013-09-17 01:17:00,
2013-09-16 15:22:00,84.6,69.6,29.92,West,259,9.0,18.0,61,0.00,,,0.00,meteohub,2013-09-17 01:22:00,
2013-09-16 15:27:00,84.7,70.7,29.92,WNW,292,11.0,18.0,63,0.00,,,0.00,meteohub,2013-09-17 01:27:00,
2013-09-16 15:32:00,84.6,70.5,29.92,WNW,291,11.0,17.0,63,0.00,,,0.00,meteohub,2013-09-17 01:32:00,
2013-09-16 15:37:00,83.7,71.1,29.92,WNW,288,12.0,24.0,66,0.00,,,0.00,meteohub,2013-09-17 01:37:00,
2013-09-16 15:42:00,83.5,71.4,29.92,West,281,8.0,24.0,67,0.00,,,0.00,meteohub,2013-09-17 01:42:00,
2013-09-16 15:47:00,83.5,70.9,29.92,WNW,294,15.0,24.0,66,0.00,,,0.00,meteohub,2013-09-17 01:47:00,
2013-09-16 15:52:00,83.3,70.7,29.92,West,271,6.0,21.0,66,0.00,,,0.00,meteohub,2013-09-17 01:52:00,
2013-09-16 15:57:00,83.5,70.0,29.92,WNW,303,13.0,24.0,64,0.00,,,0.00,meteohub,2013-09-17 01:57:00,
2013-09-16 16:02:00,83.7,69.8,29.92,NW,304,11.0,26.0,63,0.00,,,0.00,meteohub,2013-09-17 02:02:00,
2013-09-16 16:07:00,84.0,68.7,29.92,West,271,7.0,26.0,60,0.00,,,0.00,meteohub,2013-09-17 02:07:00,
2013-09-16 16:12:00,84.6,68.7,29.93,SW,233,1.0,26.0,59,0.00,,,0.00,meteohub,2013-09-17 02:12:00,
2013-09-16 16:17:00,84.6,70.2,29.92,WNW,285,14.0,19.0,62,0.00,,,0.00,meteohub,2013-09-17 02:17:00,
2013-09-16 16:22:00,84.0,69.6,29.93,NW,308,9.0,17.0,62,0.00,,,0.00,meteohub,2013-09-17 02:22:00,
2013-09-16 16:27:00,84.0,68.7,29.93,WNW,284,8.0,17.0,60,0.00,,,0.00,meteohub,2013-09-17 02:27:00,
2013-09-16 16:32:00,83.8,70.0,29.93,West,261,7.0,17.0,63,0.00,,,0.00,meteohub,2013-09-17 02:32:00,
2013-09-16 16:37:00,83.8,68.9,29.93,WNW,294,9.0,16.0,61,0.00,,,0.00,meteohub,2013-09-17 02:37:00,
2013-09-16 16:42:00,83.5,69.1,29.93,WNW,300,6.0,16.0,62,0.00,,,0.00,meteohub,2013-09-17 02:42:00,
2013-09-16 16:47:00,83.5,69.1,29.94,West,274,6.0,16.0,62,0.00,,,0.00,meteohub,2013-09-17 02:47:00,
2013-09-16 16:52:00,83.7,68.4,29.94,WSW,251,4.0,16.0,60,0.00,,,0.00,meteohub,2013-09-17 02:52:00,
2013-09-16 16:57:00,83.3,69.4,29.94,WNW,297,3.0,18.0,63,0.00,,,0.00,meteohub,2013-09-17 02:57:00,
2013-09-16 17:02:00,82.8,70.2,29.93,WNW,285,8.0,18.0,66,0.00,,,0.00,meteohub,2013-09-17 03:02:00,
2013-09-16 17:07:00,82.9,69.4,29.94,West,280,11.0,18.0,64,0.00,,,0.00,meteohub,2013-09-17 03:07:00,
2013-09-16 17:12:00,82.9,69.1,29.94,WSW,245,8.0,19.0,63,0.00,,,0.00,meteohub,2013-09-17 03:12:00,
2013-09-16 17:17:00,82.6,69.1,29.94,WNW,301,10.0,19.0,64,0.00,,,0.00,meteohub,2013-09-17 03:17:00,
2013-09-16 17:22:00,81.9,68.5,29.94,NW,317,3.0,19.0,64,0.00,,,0.00,meteohub,2013-09-17 03:22:00,
2013-09-16 17:27:00,82.2,68.9,29.94,WNW,286,7.0,15.0,64,0.00,,,0.00,meteohub,2013-09-17 03:27:00,
2013-09-16 17:32:00,82.9,69.1,29.94,West,264,3.0,15.0,63,0.00,,,0.00,meteohub,2013-09-17 03:32:00,
2013-09-16 17:37:00,83.1,69.3,29.94,NW,309,3.0,10.0,63,0.00,,,0.00,meteohub,2013-09-17 03:37:00,
2013-09-16 17:42:00,83.1,69.3,29.94,WNW,287,5.0,8.0,63,0.00,,,0.00,meteohub,2013-09-17 03:42:00,
2013-09-16 17:47:00,82.9,69.1,29.94,WNW,298,7.0,15.0,63,0.00,,,0.00,meteohub,2013-09-17 03:47:00,
2013-09-16 17:52:00,82.8,69.8,29.94,WNW,290,2.0,15.0,65,0.00,,,0.00,meteohub,2013-09-17 03:52:00,
2013-09-16 17:57:00,82.6,69.6,29.94,West,281,3.0,15.0,65,0.00,,,0.00,meteohub,2013-09-17 03:57:00,
2013-09-16 18:01:00,82.4,69.4,29.95,NW,321,4.0,11.0,65,0.00,,,0.00,meteohub,2013-09-17 04:01:00,
2013-09-16 18:02:00,82.4,69.4,29.95,WNW,295,8.0,11.0,65,0.00,,,0.00,meteohub,2013-09-17 04:02:00,
2013-09-16 18:03:00,82.2,69.3,29.95,West,276,3.0,11.0,65,0.00,,,0.00,meteohub,2013-09-17 04:03:00,
2013-09-16 18:04:00,82.0,70.0,29.95,West,278,3.0,11.0,67,0.00,,,0.00,meteohub,2013-09-17 04:04:00,
2013-09-16 18:09:00,81.7,69.3,29.95,WNW,295,3.0,13.0,66,0.00,,,0.00,meteohub,2013-09-17 04:09:00,
2013-09-16 18:14:00,81.7,69.6,29.95,SSE,162,2.0,13.0,67,0.00,,,0.00,meteohub,2013-09-17 04:14:00,
2013-09-16 18:19:00,81.5,68.5,29.95,SSE,162,0.0,13.0,65,0.00,,,0.00,meteohub,2013-09-17 04:19:00,
2013-09-16 18:24:00,81.5,68.5,29.95,SE,139,1.0,6.0,65,0.00,,,0.00,meteohub,2013-09-17 04:24:00,
2013-09-16 18:29:00,81.3,68.4,29.96,WSW,239,2.0,3.0,65,0.00,,,0.00,meteohub,2013-09-17 04:29:00,
2013-09-16 18:34:00,81.1,68.7,29.96,West,276,0.0,5.0,66,0.00,,,0.00,meteohub,2013-09-17 04:34:00,
2013-09-16 18:39:00,81.0,68.5,29.96,WNW,290,1.0,5.0,66,0.00,,,0.00,meteohub,2013-09-17 04:39:00,
2013-09-16 18:44:00,80.8,68.4,29.96,SE,135,1.0,5.0,66,0.00,,,0.00,meteohub,2013-09-17 04:44:00,
2013-09-16 18:49:00,80.4,68.0,29.96,SE,139,1.0,5.0,66,0.00,,,0.00,meteohub,2013-09-17 04:49:00,
2013-09-16 18:55:00,80.2,68.4,29.96,SSE,147,1.0,4.0,67,0.00,,,0.00,meteohub,2013-09-17 04:55:00,
2013-09-16 19:00:00,80.1,68.2,29.96,SE,132,0.0,2.0,67,0.00,,,0.00,meteohub,2013-09-17 05:00:00,
2013-09-16 19:05:00,79.9,68.7,29.97,SSE,158,0.0,2.0,69,0.00,,,0.00,meteohub,2013-09-17 05:05:00,
2013-09-16 19:10:00,79.5,68.5,29.97,SSE,157,0.0,2.0,69,0.00,,,0.00,meteohub,2013-09-17 05:10:00,
2013-09-16 19:15:00,79.3,69.1,29.97,SSE,156,0.0,2.0,71,0.00,,,0.00,meteohub,2013-09-17 05:15:00,
2013-09-16 19:20:00,79.2,68.9,29.97,ESE,116,1.0,1.0,71,0.00,,,0.00,meteohub,2013-09-17 05:20:00,
2013-09-16 19:25:00,79.2,68.9,29.97,ESE,112,1.0,2.0,71,0.00,,,0.00,meteohub,2013-09-17 05:25:00,
2013-09-16 19:30:00,79.0,68.4,29.97,SE,128,1.0,3.0,70,0.00,,,0.00,meteohub,2013-09-17 05:30:00,
2013-09-16 19:35:00,78.6,68.4,29.98,ESE,123,1.0,3.0,71,0.00,,,0.00,meteohub,2013-09-17 05:35:00,
2013-09-16 19:40:00,78.6,68.0,29.98,ESE,122,1.0,3.0,70,0.00,,,0.00,meteohub,2013-09-17 05:40:00,
2013-09-16 19:45:00,78.6,68.4,29.98,SE,127,1.0,2.0,71,0.00,,,0.00,meteohub,2013-09-17 05:45:00,
2013-09-16 19:50:00,78.4,68.2,29.98,ESE,120,1.0,4.0,71,0.00,,,0.00,meteohub,2013-09-17 05:50:00,
2013-09-16 19:56:00,78.3,68.0,29.98,ESE,106,4.0,4.0,71,0.00,,,0.00,meteohub,2013-09-17 05:56:00,
2013-09-16 20:01:00,78.1,67.8,29.98,East,101,2.0,4.0,71,0.00,,,0.00,meteohub,2013-09-17 06:01:00,
2013-09-16 20:06:00,78.1,67.8,29.99,ESE,115,2.0,4.0,71,0.00,,,0.00,meteohub,2013-09-17 06:06:00,
2013-09-16 20:11:00,78.1,67.8,29.99,ESE,118,4.0,5.0,71,0.00,,,0.00,meteohub,2013-09-17 06:11:00,
2013-09-16 20:16:00,78.1,67.8,29.99,ESE,103,2.0,5.0,71,0.00,,,0.00,meteohub,2013-09-17 06:16:00,
2013-09-16 20:21:00,77.7,67.6,29.99,East,91,2.0,5.0,71,0.00,,,0.00,meteohub,2013-09-17 06:21:00,
2013-09-16 20:26:00,77.5,67.8,29.99,East,98,1.0,5.0,72,0.00,,,0.00,meteohub,2013-09-17 06:26:00,
2013-09-16 20:31:00,77.4,67.6,29.99,ESE,111,2.0,5.0,72,0.00,,,0.00,meteohub,2013-09-17 06:31:00,
2013-09-16 20:36:00,77.2,67.5,30.00,East,99,1.0,3.0,72,0.00,,,0.00,meteohub,2013-09-17 06:36:00,
2013-09-16 20:41:00,77.2,67.8,30.00,ESE,104,1.0,3.0,73,0.00,,,0.00,meteohub,2013-09-17 06:41:00,
2013-09-16 20:46:00,77.0,67.6,30.00,East,92,2.0,3.0,73,0.00,,,0.00,meteohub,2013-09-17 06:46:00,
2013-09-16 20:51:00,76.8,67.5,30.00,East,101,1.0,2.0,73,0.00,,,0.00,meteohub,2013-09-17 06:51:00,
2013-09-16 20:56:00,76.8,67.5,30.01,East,94,2.0,3.0,73,0.00,,,0.00,meteohub,2013-09-17 06:56:00,
2013-09-16 21:01:00,77.0,67.6,30.01,ENE,73,2.0,3.0,73,0.00,,,0.00,meteohub,2013-09-17 07:01:00,
2013-09-16 21:06:00,77.0,67.6,30.01,ENE,75,0.0,3.0,73,0.00,,,0.00,meteohub,2013-09-17 07:06:00,
2013-09-16 21:12:00,76.8,67.5,30.01,East,93,3.0,3.0,73,0.00,,,0.00,meteohub,2013-09-17 07:12:00,
2013-09-16 21:17:00,76.6,67.3,30.01,ENE,75,1.0,3.0,73,0.00,,,0.00,meteohub,2013-09-17 07:17:00,
2013-09-16 21:22:00,76.5,67.1,30.01,East,81,2.0,3.0,73,0.00,,,0.00,meteohub,2013-09-17 07:22:00,
2013-09-16 21:27:00,76.5,67.1,30.01,East,93,2.0,4.0,73,0.00,,,0.00,meteohub,2013-09-17 07:27:00,
2013-09-16 21:32:00,76.5,67.1,30.01,SE,127,3.0,4.0,73,0.00,,,0.00,meteohub,2013-09-17 07:32:00,
2013-09-16 21:37:00,76.6,67.3,30.01,ESE,108,4.0,5.0,73,0.00,,,0.00,meteohub,2013-09-17 07:37:00,
2013-09-16 21:42:00,76.6,66.9,30.01,ESE,108,3.0,5.0,72,0.00,,,0.00,meteohub,2013-09-17 07:42:00,
2013-09-16 21:47:00,76.6,67.3,30.01,NW,307,1.0,5.0,73,0.00,,,0.00,meteohub,2013-09-17 07:47:00,
2013-09-16 21:52:00,76.5,67.1,30.01,NW,318,0.0,5.0,73,0.00,,,0.00,meteohub,2013-09-17 07:52:00,
2013-09-16 21:57:00,76.5,67.6,30.01,NW,317,0.0,3.0,74,0.00,,,0.00,meteohub,2013-09-17 07:57:00,
2013-09-16 22:02:00,76.3,67.5,30.01,SSW,198,1.0,3.0,74,0.00,,,0.00,meteohub,2013-09-17 08:02:00,
2013-09-16 22:07:00,76.3,67.8,30.01,SE,127,1.0,1.0,75,0.00,,,0.00,meteohub,2013-09-17 08:07:00,
2013-09-16 22:12:00,76.1,67.6,30.01,ESE,123,0.0,1.0,75,0.00,,,0.00,meteohub,2013-09-17 08:12:00,
2013-09-16 22:17:00,75.9,67.5,30.01,ESE,103,2.0,2.0,75,0.00,,,0.00,meteohub,2013-09-17 08:17:00,
2013-09-16 22:22:00,75.7,67.3,30.01,NW,326,0.0,2.0,75,0.00,,,0.00,meteohub,2013-09-17 08:22:00,
2013-09-16 22:27:00,75.9,67.5,30.01,SSE,149,1.0,2.0,75,0.00,,,0.00,meteohub,2013-09-17 08:27:00,
2013-09-16 22:32:00,75.9,67.5,30.01,ESE,108,2.0,3.0,75,0.00,,,0.00,meteohub,2013-09-17 08:32:00,
2013-09-16 22:37:00,75.9,67.1,30.01,East,91,2.0,3.0,74,0.00,,,0.00,meteohub,2013-09-17 08:37:00,
2013-09-16 22:42:00,75.7,66.9,30.01,East,101,2.0,3.0,74,0.00,,,0.00,meteohub,2013-09-17 08:42:00,
2013-09-16 22:47:00,75.6,66.7,30.01,East,92,1.0,3.0,74,0.00,,,0.00,meteohub,2013-09-17 08:47:00,
2013-09-16 22:52:00,75.4,66.9,30.01,ESE,108,2.0,3.0,75,0.00,,,0.00,meteohub,2013-09-17 08:52:00,
2013-09-16 22:57:00,75.0,66.6,30.01,ENE,77,3.0,3.0,75,0.00,,,0.00,meteohub,2013-09-17 08:57:00,
2013-09-16 23:02:00,75.0,66.6,30.01,ESE,116,3.0,3.0,75,0.00,,,0.00,meteohub,2013-09-17 09:02:00,
2013-09-16 23:07:00,75.0,66.6,30.01,ESE,103,2.0,4.0,75,0.00,,,0.00,meteohub,2013-09-17 09:07:00,
2013-09-16 23:12:00,75.0,66.6,30.01,ESE,120,2.0,5.0,75,0.00,,,0.00,meteohub,2013-09-17 09:12:00,
2013-09-16 23:17:00,75.2,66.7,30.01,ESE,102,3.0,5.0,75,0.00,,,0.00,meteohub,2013-09-17 09:17:00,
2013-09-16 23:22:00,75.2,66.7,30.01,ESE,121,2.0,4.0,75,0.00,,,0.00,meteohub,2013-09-17 09:22:00,
2013-09-16 23:27:00,75.4,66.6,30.00,ESE,118,3.0,4.0,74,0.00,,,0.00,meteohub,2013-09-17 09:27:00,
2013-09-16 23:32:00,75.4,66.6,30.00,ESE,116,3.0,5.0,74,0.00,,,0.00,meteohub,2013-09-17 09:32:00,
2013-09-16 23:37:00,75.4,66.6,30.00,ESE,123,3.0,5.0,74,0.00,,,0.00,meteohub,2013-09-17 09:37:00,
2013-09-16 23:42:00,75.4,66.6,30.00,East,98,2.0,5.0,74,0.00,,,0.00,meteohub,2013-09-17 09:42:00,
2013-09-16 23:47:00,75.4,66.6,30.00,ESE,115,2.0,5.0,74,0.00,,,0.00,meteohub,2013-09-17 09:47:00,
2013-09-16 23:52:00,75.4,66.9,30.00,ESE,110,1.0,5.0,75,0.00,,,0.00,meteohub,2013-09-17 09:52:00,
2013-09-16 23:57:00,75.0,66.6,30.01,ESE,114,1.0,3.0,75,0.00,,,0.00,meteohub,2013-09-17 09:57:00,